Погода в Тырнове

Россия / Рязанская область     54°28′07″N   41°01′56″E
темп.,
°C
ветер,
м/с
пор.,
м/с
влажн.,
%
обл.,
%
осадки,
мм/ч
давл.,
гПа
погр.,
м
21 апреля, ср
ср2100:00+4в71595100 5.0 1009950
03:00+6вюв102089100 8.6 10041067
06:00+8ю71393100 1.4 1003864
09:00+7юз4795100 3.9 1005482
12:00+5зюз4793100 1.6 1007414
15:00+4зюз4794100 1.9 1009487
18:00+5зюз4785100 0.0 1011839
21:00+5ююз4988100 0.0 1014410
22 апреля, чт
чт2200:00+5ю4989100 0.0 1015304
03:00+5ююз2591100 0.0 1015168
06:00+5юз279581 0.5 1016334
09:00+8юз457537 0.5 1018806
12:00+11юз675961 0.2 10191658
15:00+12юз5860100 0.2 10191586
18:00+11ююз48715 0.0 1019411
21:00+7ююв410835 0.0 1020176
23 апреля, пт
пт2300:00+7ю4128331 0.0 1019206
03:00+6ю4108415 0.0 1019166
06:00+7ю41081100 0.0 1019207
09:00+13ю5106685 0.0 1019496
12:00+15ю685196 0.0 10192222
15:00+16ю685084 0.1 10181839
18:00+14ююв5105846 0.0 1016321
21:00+9юв4107693 0.0 1016171
24 апреля, сб
сб2400:00+8юв412835 0.0 1014239
03:00+8юв5129028 0.0 1011257
06:00+8ююв6128879 0.0 1010367
09:00+11ююз71177100 0.6 10081180
12:00+4зсз5895100 1.4 1009485
15:00+6зсз4790100 4.8 1009756
18:00+7зсз2678100 0.3 1009794
21:00+4зюз228273 0.6 100923
25 апреля, вс
вс2500:00+2зюз410841 0.1 1009200
03:00+1зюз410877 0.1 1010218
06:00+1зюз411885 0.0 1011360
09:00+5зюз697011 0.0 10111128
12:00+8зюз785599 0.7 10111902
15:00+8зюз8105494 1.9 10112030
18:00+7зюз710583 0.3 1012925
21:00+3юз410775 0.4 1013221